Location: Riverside
(39.1734°N, 77.8561°W)
Time: 22:22:10
(UTC+00:00)

BEESAT 3 - Pass Details

Date: 28 May 2019
Orbit: 484 x 526 km, 64.9° (Epoch: 20 June)

Event Time Altitude Azimuth Distance (km) Brightness Sun altitude
Rises 04:42:30 0° 335° (NNW) 2,663 ? -29.1°
Reaches altitude 10° 04:44:47 10° 343° (NNW) 1,773 ? -29.2°
Enters shadow 04:47:09 29° 8° (N) 984 ? -29.2°
